Location: Unnamed
(23.5608°S, 46.6833°W)
Time: 02:25:00
(UTC-03:00)

Tiangong - Visible Passes

Search period start: 09 December 2022 00:00
Search period end: 19 December 2022 00:00
Orbit: 386 x 392 km, 41.5° (Epoch: 08 December)

Date Brightness Start Highest point End Pass type
(mag) Time Alt. Az. Time Alt. Az. Time Alt. Az.
15 Dec 1.2 04:00:48 10° S 04:02:10 12° SSE 04:03:32 10° SE visible
16 Dec -0.7 04:37:45 10° SW 04:40:51 41° SSE 04:43:56 10° ENE visible
16 Dec -0.1 19:32:12 10° NNE 19:33:28 13° NE 19:33:28 13° NE visible
17 Dec 0.6 03:39:37 10° SSW 03:42:14 22° SSE 03:44:48 10° E visible
17 Dec -2.3 20:08:35 10° NW 20:11:47 76° NE 20:13:21 27° ESE visible
18 Dec 1.2 02:42:53 12° SSE 02:43:27 13° SSE 02:45:01 10° SE visible
18 Dec -2.2 04:17:23 10° WSW 04:20:37 74° NW 04:23:49 10° NE visible
18 Dec 0.5 20:47:35 10° W 20:50:09 21° SSW 20:52:37 11° SSE visible
